Home   Weather   Coesfeld   Past weeks

Flag for Germany Past Weather in Coesfeld, North Rhine-Westphalia, Germany — Yesterday and Last 2 Weeks

Now
46 °F

Drizzle. Fog.


Feels Like: 42 °F
Forecast: 38 / 44 °F
Wind: 9 mph from Southwest

Location: Rheine-Bentlage

Current Time: Dec 9, 2016 at 8:56:47 am

Latest Report: Dec 9, 2016 at 7:20 am


Visibility: 2 mi

Pressure: 30.30 "Hg

Humidity: 93%

Dew Point: 45 °F

Location of CoesfeldLocation

Past Weather in Coesfeld — Graph

°F

Coesfeld Temperature Yesterday

Maximum temperature yesterday: 48 °F (at 1:20 pm)
Minimum temperature yesterday: 43 °F (at 10:20 pm)
Average temperature yesterday: 46 °F

High & Low Weather Summary for the Past Weeks

 TemperatureHumidityPressure
High48 °F (Nov 27, 1:20 pm)100% (Nov 25, 5:20 am)30.60 "Hg (Nov 25, 5:20 am)
Low19 °F (Nov 29, 3:20 am)48% (Dec 5, 12:20 pm)30.07 "Hg (Nov 26, 8:20 pm)
Average34 °F86%30.31 "Hg
* Reported Nov 24 7:20 am — Dec 9 7:20 am, Coesfeld, Weather by CustomWeather, © 2016

Note: Actual official high and low records may vary slightly from our data, if they occured in-between our weather recording intervals... More about our weather records

Advertising

Coesfeld Weather History for the Previous 24 Hours

Scroll right to see more
 ConditionsComfort  
Time TempWeatherWind HumidityBarometerVisibility
7:20 am
Fri, Dec 9
46 °FDrizzle. Fog.9 mph93%30.30 "Hg2 mi
5:20 am46 °FCool.9 mph93%30.30 "HgN/A
4:20 am46 °FCool.13 mph93%30.27 "HgN/A
3:20 am46 °FCool.10 mph87%30.27 "HgN/A
2:20 am45 °FQuite cool.9 mph93%30.27 "HgN/A
1:20 am45 °FQuite cool.9 mph93%30.27 "HgN/A
12:20 am45 °FQuite cool.8 mph87%30.30 "HgN/A
11:20 pm
Thu, Dec 8
45 °FQuite cool.7 mph87%30.30 "HgN/A
10:20 pm43 °FQuite cool.9 mph93%30.27 "HgN/A
9:20 pm45 °FQuite cool.10 mph81%30.27 "HgN/A
8:20 pm45 °FQuite cool.9 mph76%30.27 "HgN/A
7:20 pm46 °FCool.9 mph62%30.27 "HgN/A
6:20 pm46 °FCool.8 mph57%30.27 "HgN/A
5:20 pm46 °FCool.7 mph57%30.27 "HgN/A
4:20 pm46 °FCool.7 mph57%30.27 "HgN/A
3:20 pm46 °FBroken clouds.7 mph57%30.30 "HgN/A
2:20 pm48 °FBroken clouds.9 mph54%30.30 "HgN/A
1:20 pm48 °FPartly sunny.9 mph54%30.30 "HgN/A
12:20 pm46 °FPartly sunny.10 mph57%30.30 "HgN/A
11:20 am46 °FBroken clouds.9 mph57%30.33 "HgN/A
10:20 am46 °FPartly sunny.9 mph57%30.33 "HgN/A
9:20 am46 °FPartly sunny.9 mph57%30.33 "HgN/A
8:20 am45 °FPassing clouds.8 mph66%30.33 "HgN/A
Weather by CustomWeather, © 2016

See weather overviewHow to use our weather pages